Location: *
(58.7167°N, 26.1833°E)
Time: 15:21:57
(UTC+00:00)

COSMOS 2455 - Pass Details

Date: 25 August 2019
Orbit: 899 x 910 km, 67.1° (Epoch: 18 September)

Event Time Altitude Azimuth Distance (km) Brightness Sun altitude
Rises 20:07:32 0° 307° (NW) 3,552 7.3 -15.8°
Reaches altitude 10° 20:10:06 10° 311° (NW) 2,609 6.5 -16.0°
Maximum altitude 20:16:06 62° 32° (NNE) 1,028 3.2 -16.4°
Enters shadow 20:20:46 17° 110° (ESE) 2,127 4.3 -16.7°
